Simultaneous Nadir Overpasses (SNOs) Predictions

Prediction of SNOs between GOES-14 and AQUA Satellite Orbit:

Table of predicted SNOs for the next 14.0 days since TLE Epoch: 2/17/2024
Index Date Time (GOES-14) GOES-14 Lat,Lon AQUA Lat,Lon Distance(km) Time Diff (sec)
1 02/17/2024 21:03:00 -0.04,-108.43 0.71,-104.93 398.20 80
2 02/18/2024 09:23:22 0.04,-108.42 0.34,-109.86 163.69 80
3 02/20/2024 09:05:04 0.04,-108.40 -0.48,-106.04 269.31 80
4 02/20/2024 21:25:33 -0.05,-108.41 -0.64,-110.99 294.71 80
5 02/22/2024 21:12:34 -0.05,-108.40 0.19,-107.17 139.27 80
6 02/23/2024 09:32:56 0.06,-108.39 0.83,-112.10 421.80 80
7 02/25/2024 09:14:35 0.06,-108.38 0.05,-108.27 13.04 80
8 02/27/2024 08:58:54 0.05,-108.38 -0.78,-104.43 448.00 80
9 02/27/2024 21:22:04 -0.06,-108.38 -0.28,-109.40 115.72 80
10 02/29/2024 21:03:42 -0.05,-108.37 0.57,-105.56 319.89 80
11 03/01/2024 09:26:42 0.06,-108.37 0.52,-110.48 240.57 80
